When you browse on this site, cookies collect data to enhance your experience and personalize the content and advertising you see.
Visit our Privacy Policy to learn more. By continuing to use the site, you agree to this use of cookies and data.
  • In Spain
  • List of Countries
  • For 7 days
  • Water Temperature
  • Weather Map
  • Weather Widgets
  • user-avatar
    Login

    Hourly Weather Tibissa

    Today, 29 March, Sunday

    Time Temperature Precipitation Wind Pressure Humidity
    00:00 +9°C° 0.3 mm 1 mps 682 mmHg 89%
    01:00 +9°C° 0 mm 1 mps 683 mmHg 90%
    02:00 +9°C° 0.8 mm 1 mps 682 mmHg 91%
    03:00 +9°C° 0.8 mm 1 mps 682 mmHg 92%
    04:00 +8°C° 0.8 mm 1 mps 682 mmHg 94%
    05:00 +8°C° 1 mm 1 mps 681 mmHg 93%
    06:00 +8°C° 1 mm 1 mps 681 mmHg 93%
    07:00 +8°C° 0 mm 1 mps 681 mmHg 93%
    08:00 +7°C° 0.5 mm 2 mps 682 mmHg 92%
    09:00 +7°C° 0.5 mm 2 mps 682 mmHg 91%
    10:00 +7°C° 0.5 mm 3 mps 682 mmHg 89%
    11:00 +7°C° 0.6 mm 3 mps 682 mmHg 88%
    12:00 +7°C° 0.6 mm 3 mps 682 mmHg 86%
    13:00 +7°C° 0 mm 3 mps 681 mmHg 82%
    14:00 +8°C° 0.5 mm 3 mps 681 mmHg 80%
    15:00 +7°C° 0.5 mm 4 mps 681 mmHg 77%
    16:00 +8°C° 0.5 mm 4 mps 681 mmHg 74%
    17:00 +7°C° 0.5 mm 5 mps 681 mmHg 77%
    18:00 +7°C° 0.5 mm 5 mps 681 mmHg 80%
    19:00 +5°C° 0.5 mm 6 mps 681 mmHg 83%
    20:00 +5°C° 0 mm 5 mps 681 mmHg 86%
    21:00 +5°C° 0 mm 5 mps 682 mmHg 89%
    22:00 +4°C° 0 mm 4 mps 682 mmHg 92%
    23:00 +4°C° 0 mm 4 mps 682 mmHg 91%

    Tomorrow, 30 March, Monday

    Time Temperature Precipitation Wind Pressure Humidity
    00:00 +3°C° 0 mm 5 mps 682 mmHg 90%
    01:00 +3°C° 0 mm 5 mps 682 mmHg 88%
    02:00 +3°C° 0 mm 5 mps 681 mmHg 89%
    03:00 +4°C° 0 mm 4 mps 681 mmHg 89%
    04:00 +4°C° 0 mm 4 mps 681 mmHg 90%
    05:00 +4°C° 0 mm 4 mps 681 mmHg 89%
    06:00 +4°C° 0 mm 4 mps 681 mmHg 89%
    07:00 +5°C° 0 mm 4 mps 681 mmHg 88%
    08:00 +6°C° 0 mm 4 mps 682 mmHg 81%
    09:00 +7°C° 0 mm 4 mps 683 mmHg 75%
    10:00 +8°C° 0 mm 4 mps 683 mmHg 69%
    11:00 +10°C° 0 mm 4 mps 683 mmHg 63%
    12:00 +11°C° 0 mm 3 mps 683 mmHg 57%
    13:00 +12°C° 0 mm 3 mps 683 mmHg 52%
    14:00 +13°C° 0 mm 3 mps 683 mmHg 48%
    15:00 +14°C° 0 mm 2 mps 683 mmHg 45%
    16:00 +15°C° 0 mm 2 mps 683 mmHg 42%
    17:00 +14°C° 0 mm 2 mps 682 mmHg 47%
    18:00 +13°C° 0 mm 2 mps 682 mmHg 52%
    19:00 +13°C° 0 mm 2 mps 682 mmHg 57%
    20:00 +12°C° 0 mm 2 mps 683 mmHg 61%
    21:00 +10°C° 0 mm 2 mps 683 mmHg 66%
    22:00 +10°C° 0 mm 2 mps 683 mmHg 70%
    23:00 +9°C° 0 mm 2 mps 683 mmHg 71%

    Day after tomorrow, 31 March, Tuesday

    Time Temperature Precipitation Wind Pressure Humidity
    00:00 +9°C° 0 mm 2 mps 683 mmHg 72%
    01:00 +8°C° 0 mm 2 mps 682 mmHg 72%
    02:00 +8°C° 0 mm 2 mps 682 mmHg 72%
    03:00 +8°C° 0 mm 2 mps 682 mmHg 71%
    04:00 +8°C° 0 mm 2 mps 682 mmHg 71%
    05:00 +8°C° 0 mm 2 mps 682 mmHg 70%
    06:00 +8°C° 0 mm 2 mps 682 mmHg 69%
    07:00 +8°C° 0 mm 3 mps 682 mmHg 68%
    08:00 +10°C° 0 mm 3 mps 683 mmHg 62%
    09:00 +12°C° 0 mm 3 mps 683 mmHg 55%
    10:00 +14°C° 0 mm 4 mps 684 mmHg 48%
    11:00 +14°C° 0 mm 5 mps 684 mmHg 47%
    12:00 +15°C° 0 mm 5 mps 684 mmHg 46%
    13:00 +16°C° 0 mm 6 mps 684 mmHg 44%
    14:00 +16°C° 0.1 mm 5 mps 683 mmHg 45%
    15:00 +15°C° 0.1 mm 4 mps 683 mmHg 46%
    16:00 +16°C° 0.1 mm 3 mps 683 mmHg 46%
    17:00 +14°C° 0 mm 3 mps 683 mmHg 50%
    18:00 +13°C° 0 mm 3 mps 683 mmHg 54%
    19:00 +14°C° 0 mm 2 mps 683 mmHg 58%
    20:00 +13°C° 0 mm 2 mps 683 mmHg 60%
    21:00 +13°C° 0 mm 2 mps 683 mmHg 63%
    22:00 +12°C° 0 mm 1 mps 683 mmHg 66%
    23:00 +12°C° 0 mm 2 mps 683 mmHg 64%

    1 April, Wednesday

    Time Temperature Precipitation Wind Pressure Humidity
    00:00 +12°C° 0 mm 2 mps 682 mmHg 62%
    01:00 +10°C° 0 mm 3 mps 682 mmHg 61%
    02:00 +10°C° 0 mm 2 mps 682 mmHg 62%
    03:00 +11°C° 0 mm 1 mps 681 mmHg 63%
    04:00 +11°C° 0 mm 1 mps 681 mmHg 63%
    05:00 +11°C° 0 mm 1 mps 681 mmHg 62%
    06:00 +12°C° 0 mm 1 mps 681 mmHg 61%
    07:00 +12°C° 0 mm 2 mps 682 mmHg 59%
    08:00 +13°C° 0 mm 2 mps 682 mmHg 52%
    09:00 +14°C° 0 mm 3 mps 682 mmHg 45%
    10:00 +17°C° 0 mm 3 mps 683 mmHg 37%
    11:00 +18°C° 0 mm 4 mps 683 mmHg 34%
    12:00 +19°C° 0 mm 5 mps 683 mmHg 31%
    13:00 +21°C° 0 mm 6 mps 683 mmHg 28%
    14:00 +21°C° 0 mm 6 mps 682 mmHg 28%
    15:00 +21°C° 0 mm 6 mps 682 mmHg 28%
    16:00 +21°C° 0 mm 6 mps 681 mmHg 28%
    17:00 +20°C° 0 mm 6 mps 681 mmHg 33%
    18:00 +17°C° 0 mm 5 mps 680 mmHg 37%
    19:00 +16°C° 0 mm 5 mps 680 mmHg 42%
    20:00 +15°C° 0 mm 4 mps 680 mmHg 47%
    21:00 +14°C° 0 mm 3 mps 680 mmHg 52%
    22:00 +14°C° 0 mm 2 mps 681 mmHg 57%
    23:00 +13°C° 0 mm 2 mps 680 mmHg 58%

    2 April, Thursday

    Time Temperature Precipitation Wind Pressure Humidity
    00:00 +13°C° 0 mm 2 mps 680 mmHg 58%
    01:00 +12°C° 0 mm 2 mps 680 mmHg 59%
    02:00 +10°C° 0 mm 2 mps 679 mmHg 63%
    03:00 +11°C° 0 mm 1 mps 679 mmHg 66%
    04:00 +9°C° 0 mm 0 mps 679 mmHg 70%
    05:00 +10°C° 0 mm 1 mps 679 mmHg 70%
    06:00 +11°C° 0 mm 1 mps 679 mmHg 70%
    07:00 +11°C° 0 mm 1 mps 679 mmHg 70%
    08:00 +12°C° 0 mm 1 mps 679 mmHg 63%
    09:00 +14°C° 0 mm 1 mps 679 mmHg 55%
    10:00 +15°C° 0 mm 1 mps 679 mmHg 47%
    11:00 +18°C° 0 mm 1 mps 679 mmHg 44%
    12:00 +19°C° 0 mm 1 mps 680 mmHg 40%
    13:00 +19°C° 0 mm 2 mps 680 mmHg 37%
    14:00 +19°C° 0 mm 3 mps 679 mmHg 39%
    15:00 +19°C° 0 mm 4 mps 679 mmHg 40%
    16:00 +19°C° 0 mm 4 mps 678 mmHg 42%
    17:00 +17°C° 0.1 mm 5 mps 678 mmHg 52%
    18:00 +15°C° 0.1 mm 5 mps 678 mmHg 61%
    19:00 +13°C° 0.1 mm 5 mps 678 mmHg 70%
    20:00 +13°C° 0.1 mm 4 mps 678 mmHg 73%
    21:00 +12°C° 0.1 mm 3 mps 679 mmHg 76%
    22:00 +12°C° 0.1 mm 3 mps 679 mmHg 78%
    23:00 +11°C° 0.6 mm 3 mps 679 mmHg 81%

    3 April, Friday

    Time Temperature Precipitation Wind Pressure Humidity
    00:00 +11°C° 0.6 mm 3 mps 678 mmHg 84%
    01:00 +10°C° 0.6 mm 3 mps 678 mmHg 87%
    02:00 +10°C° 1.1 mm 3 mps 678 mmHg 86%
    03:00 +10°C° 1.1 mm 3 mps 677 mmHg 85%
    04:00 +9°C° 1.1 mm 2 mps 677 mmHg 85%
    05:00 +9°C° 0.9 mm 3 mps 677 mmHg 82%
    06:00 +8°C° 0.9 mm 4 mps 677 mmHg 80%
    07:00 +7°C° 0.9 mm 6 mps 678 mmHg 78%
    08:00 +7°C° 0.4 mm 5 mps 678 mmHg 78%
    09:00 +7°C° 0.4 mm 5 mps 678 mmHg 78%
    10:00 +7°C° 0.4 mm 5 mps 678 mmHg 78%
    11:00 +8°C° 0.1 mm 6 mps 678 mmHg 72%
    12:00 +10°C° 0.1 mm 8 mps 678 mmHg 65%
    13:00 +11°C° 0.1 mm 9 mps 679 mmHg 59%
    14:00 +9°C° 0.1 mm 10 mps 679 mmHg 64%
    15:00 +9°C° 0.1 mm 11 mps 678 mmHg 69%
    16:00 +8°C° 0.1 mm 11 mps 678 mmHg 74%
    17:00 +8°C° 0.1 mm 10 mps 679 mmHg 77%
    18:00 +7°C° 0.1 mm 10 mps 679 mmHg 80%
    19:00 +7°C° 0.1 mm 9 mps 680 mmHg 84%
    20:00 +6°C° 0 mm 9 mps 680 mmHg 84%
    21:00 +6°C° 0 mm 8 mps 681 mmHg 85%
    22:00 +6°C° 0 mm 8 mps 682 mmHg 86%
    23:00 +5°C° 0 mm 8 mps 682 mmHg 86%
    Show more